• In Österreich
  • Länderverzeichnis
  • Für 7 Tage
  • Wassertemperatur
  • Satellitenkarten
  • Wetterkarte
  • News
  • Widgets
  • user-avatar
    Anmelden

    Stündliche Wetter Wien

    Heute, 26 Juni, Montag

    Zeit Temperatur Niederschläge Wind Luftdruck Luftfeuchtigkeit
    00:00 +18°C° 0 mm 4 m/S 742 mmHg 89%
    01:00 +18°C° 0 mm 4 m/S 741 mmHg 87%
    02:00 +18°C° 0 mm 4 m/S 741 mmHg 87%
    03:00 +17°C° 0 mm 4 m/S 741 mmHg 87%
    04:00 +17°C° 0 mm 3 m/S 741 mmHg 87%
    05:00 +19°C° 0 mm 4 m/S 742 mmHg 82%
    06:00 +20°C° 0 mm 4 m/S 742 mmHg 78%
    07:00 +22°C° 0 mm 3 m/S 742 mmHg 70%
    08:00 +23°C° 0 mm 4 m/S 742 mmHg 64%
    09:00 +26°C° 0 mm 4 m/S 742 mmHg 57%
    10:00 +27°C° 0 mm 5 m/S 742 mmHg 51%
    11:00 +28°C° 0 mm 5 m/S 742 mmHg 49%
    12:00 +28°C° 0 mm 4 m/S 741 mmHg 48%
    13:00 +29°C° 0 mm 4 m/S 741 mmHg 45%
    14:00 +30°C° 0 mm 3 m/S 741 mmHg 45%
    15:00 +30°C° 0 mm 3 m/S 741 mmHg 45%
    16:00 +30°C° 0 mm 3 m/S 741 mmHg 45%
    17:00 +29°C° 0 mm 2 m/S 740 mmHg 53%
    18:00 +27°C° 0 mm 2 m/S 740 mmHg 62%
    19:00 +26°C° 0 mm 1 m/S 740 mmHg 70%
    20:00 +24°C° 0 mm 1 m/S 740 mmHg 74%
    21:00 +23°C° 0 mm 2 m/S 740 mmHg 78%
    22:00 +20°C° 0 mm 2 m/S 741 mmHg 81%
    23:00 +19°C° 0 mm 2 m/S 741 mmHg 84%

    Morgen, 27 Juni, Dienstag

    Zeit Temperatur Niederschläge Wind Luftdruck Luftfeuchtigkeit
    00:00 +20°C° 0 mm 1 m/S 741 mmHg 86%
    01:00 +19°C° 0 mm 1 m/S 740 mmHg 89%
    02:00 +19°C° 0 mm 1 m/S 740 mmHg 90%
    03:00 +18°C° 0 mm 1 m/S 740 mmHg 91%
    04:00 +18°C° 0 mm 1 m/S 740 mmHg 92%
    05:00 +19°C° 0 mm 2 m/S 740 mmHg 86%
    06:00 +21°C° 0 mm 2 m/S 740 mmHg 81%
    07:00 +23°C° 0 mm 2 m/S 740 mmHg 75%
    08:00 +25°C° 0 mm 3 m/S 740 mmHg 68%
    09:00 +27°C° 0 mm 4 m/S 740 mmHg 61%
    10:00 +29°C° 0 mm 4 m/S 740 mmHg 55%
    11:00 +30°C° 0 mm 5 m/S 740 mmHg 50%
    12:00 +32°C° 0 mm 5 m/S 739 mmHg 46%
    13:00 +33°C° 0 mm 5 m/S 739 mmHg 41%
    14:00 +33°C° 0,3 mm 5 m/S 739 mmHg 43%
    15:00 +33°C° 0,3 mm 5 m/S 738 mmHg 44%
    16:00 +33°C° 0,3 mm 5 m/S 738 mmHg 45%
    17:00 +30°C° 0,1 mm 4 m/S 738 mmHg 51%
    18:00 +29°C° 0,1 mm 3 m/S 737 mmHg 58%
    19:00 +27°C° 0,1 mm 3 m/S 737 mmHg 64%
    20:00 +26°C° 0 mm 3 m/S 737 mmHg 68%
    21:00 +25°C° 0 mm 3 m/S 737 mmHg 72%
    22:00 +22°C° 0 mm 3 m/S 737 mmHg 76%
    23:00 +21°C° 0 mm 3 m/S 737 mmHg 77%

    übermorgen, 28 Juni, Mittwoch

    Zeit Temperatur Niederschläge Wind Luftdruck Luftfeuchtigkeit
    00:00 +21°C° 0 mm 3 m/S 737 mmHg 79%
    01:00 +20°C° 0 mm 3 m/S 737 mmHg 80%
    02:00 +20°C° 0 mm 3 m/S 737 mmHg 81%
    03:00 +20°C° 0 mm 3 m/S 736 mmHg 82%
    04:00 +19°C° 0 mm 3 m/S 736 mmHg 82%
    05:00 +21°C° 0 mm 4 m/S 736 mmHg 77%
    06:00 +23°C° 0 mm 4 m/S 736 mmHg 72%
    07:00 +25°C° 0 mm 5 m/S 735 mmHg 67%
    08:00 +27°C° 0 mm 6 m/S 735 mmHg 60%
    09:00 +29°C° 0 mm 7 m/S 735 mmHg 53%
    10:00 +32°C° 0 mm 8 m/S 734 mmHg 45%
    11:00 +33°C° 0 mm 8 m/S 734 mmHg 43%
    12:00 +34°C° 0 mm 9 m/S 733 mmHg 41%
    13:00 +35°C° 0 mm 9 m/S 733 mmHg 39%
    14:00 +35°C° 0 mm 9 m/S 732 mmHg 40%
    15:00 +35°C° 0 mm 8 m/S 732 mmHg 41%
    16:00 +35°C° 0 mm 8 m/S 732 mmHg 41%
    17:00 +33°C° 0 mm 7 m/S 731 mmHg 47%
    18:00 +30°C° 0 mm 6 m/S 731 mmHg 53%
    19:00 +29°C° 0 mm 5 m/S 731 mmHg 59%
    20:00 +28°C° 0,3 mm 6 m/S 731 mmHg 62%
    21:00 +27°C° 0,3 mm 6 m/S 731 mmHg 65%
    22:00 +26°C° 0,3 mm 7 m/S 731 mmHg 68%
    23:00 +24°C° 0,2 mm 7 m/S 731 mmHg 68%

    29 Juni, Donnerstag

    Zeit Temperatur Niederschläge Wind Luftdruck Luftfeuchtigkeit
    00:00 +24°C° 0,2 mm 7 m/S 730 mmHg 69%
    01:00 +23°C° 0,2 mm 7 m/S 729 mmHg 69%
    02:00 +23°C° 0 mm 7 m/S 729 mmHg 71%
    03:00 +22°C° 0 mm 7 m/S 728 mmHg 74%
    04:00 +22°C° 0 mm 7 m/S 728 mmHg 76%
    05:00 +23°C° 0 mm 7 m/S 728 mmHg 73%
    06:00 +23°C° 0 mm 7 m/S 728 mmHg 69%
    07:00 +24°C° 0 mm 7 m/S 728 mmHg 66%
    08:00 +26°C° 0,2 mm 7 m/S 728 mmHg 63%
    09:00 +26°C° 0,2 mm 7 m/S 729 mmHg 60%
    10:00 +27°C° 0,2 mm 8 m/S 729 mmHg 58%
    11:00 +27°C° 0,9 mm 7 m/S 729 mmHg 57%
    12:00 +27°C° 0,9 mm 7 m/S 730 mmHg 56%
    13:00 +27°C° 0,9 mm 6 m/S 730 mmHg 55%
    14:00 +27°C° 0,7 mm 6 m/S 731 mmHg 56%
    15:00 +26°C° 0,7 mm 6 m/S 731 mmHg 57%
    16:00 +26°C° 0,7 mm 5 m/S 732 mmHg 59%
    17:00 +23°C° 0,2 mm 5 m/S 732 mmHg 63%
    18:00 +22°C° 0,2 mm 5 m/S 732 mmHg 67%
    19:00 +20°C° 0,2 mm 5 m/S 733 mmHg 71%
    20:00 +20°C° 0 mm 5 m/S 733 mmHg 71%
    21:00 +19°C° 0 mm 5 m/S 734 mmHg 72%
    22:00 +19°C° 0 mm 5 m/S 735 mmHg 73%
    23:00 +19°C° 0 mm 5 m/S 735 mmHg 72%

    30 Juni, Freitag

    Zeit Temperatur Niederschläge Wind Luftdruck Luftfeuchtigkeit
    00:00 +17°C° 0 mm 5 m/S 736 mmHg 70%
    01:00 +17°C° 0 mm 5 m/S 737 mmHg 69%
    02:00 +17°C° 0 mm 5 m/S 737 mmHg 69%
    03:00 +17°C° 0 mm 4 m/S 737 mmHg 69%
    04:00 +17°C° 0 mm 3 m/S 738 mmHg 69%
    05:00 +17°C° 0 mm 3 m/S 738 mmHg 66%
    06:00 +18°C° 0 mm 3 m/S 739 mmHg 63%
    07:00 +19°C° 0 mm 3 m/S 739 mmHg 59%
    08:00 +20°C° 0 mm 3 m/S 739 mmHg 55%
    09:00 +22°C° 0 mm 3 m/S 739 mmHg 51%
    10:00 +24°C° 0 mm 3 m/S 740 mmHg 47%
    11:00 +25°C° 0,1 mm 3 m/S 740 mmHg 46%
    12:00 +26°C° 0,1 mm 3 m/S 740 mmHg 45%
    13:00 +27°C° 0,1 mm 3 m/S 740 mmHg 45%
    14:00 +27°C° 0,2 mm 3 m/S 739 mmHg 46%
    15:00 +27°C° 0,2 mm 2 m/S 739 mmHg 47%
    16:00 +27°C° 0,2 mm 2 m/S 739 mmHg 48%
    17:00 +26°C° 0,2 mm 2 m/S 739 mmHg 54%
    18:00 +25°C° 0,2 mm 2 m/S 739 mmHg 61%
    19:00 +24°C° 0,2 mm 2 m/S 739 mmHg 67%
    20:00 +21°C° 0,3 mm 2 m/S 739 mmHg 72%
    21:00 +20°C° 0,3 mm 3 m/S 740 mmHg 76%
    22:00 +18°C° 0,3 mm 4 m/S 740 mmHg 81%
    23:00 +17°C° 0 mm 4 m/S 740 mmHg 81%

    1 Juli, Samstag

    Zeit Temperatur Niederschläge Wind Luftdruck Luftfeuchtigkeit
    00:00 +17°C° 0 mm 3 m/S 740 mmHg 81%
    01:00 +17°C° 0 mm 3 m/S 740 mmHg 82%
    02:00 +16°C° 0 mm 2 m/S 740 mmHg 81%
    03:00 +16°C° 0 mm 2 m/S 740 mmHg 81%
    04:00 +15°C° 0 mm 2 m/S 741 mmHg 81%
    05:00 +16°C° 0,2 mm 1 m/S 741 mmHg 79%
    06:00 +18°C° 0,2 mm 1 m/S 741 mmHg 77%
    07:00 +19°C° 0,2 mm 1 m/S 741 mmHg 75%
    08:00 +19°C° 0,6 mm 1 m/S 741 mmHg 77%
    09:00 +18°C° 0,6 mm 2 m/S 741 mmHg 78%
    10:00 +18°C° 0,6 mm 2 m/S 742 mmHg 80%
    11:00 +19°C° 0,2 mm 2 m/S 741 mmHg 78%
    12:00 +19°C° 0,2 mm 2 m/S 741 mmHg 76%
    13:00 +19°C° 0,2 mm 2 m/S 741 mmHg 74%
    14:00 +19°C° 0,2 mm 2 m/S 741 mmHg 75%
    15:00 +18°C° 0,2 mm 3 m/S 741 mmHg 76%
    16:00 +18°C° 0,2 mm 3 m/S 741 mmHg 77%
    17:00 +18°C° 0 mm 3 m/S 741 mmHg 77%
    18:00 +17°C° 0 mm 3 m/S 741 mmHg 76%
    19:00 +17°C° 0 mm 3 m/S 741 mmHg 76%
    20:00 +17°C° 0 mm 4 m/S 742 mmHg 77%
    21:00 +15°C° 0 mm 4 m/S 742 mmHg 77%
    22:00 +15°C° 0 mm 4 m/S 743 mmHg 78%
    23:00 +14°C° 0 mm 4 m/S 743 mmHg 80%
    Mehr zeigen